Amsterdam, Netherlands

5:58 PM CEST on June 27, 2017 (GMT +0200)
Schiphol

Weather History for EHAM - December, 2012

Change the Weather History Date:

Tuesday, December 18, 2012

  Actual Average Record
Temperature  
Mean Temperature 40 °F -  
Max Temperature 44 °F 41 °F 55 °F (2014)
Min Temperature 36 °F 33 °F 23 °F (2010)
Degree Days  
Heating Degree Days 25    
Moisture  
Dew Point 41 °F    
Average Humidity 96    
Maximum Humidity 100    
Minimum Humidity 93    
Precipitation  
Precipitation 0.01 in - - ()
Sea Level Pressure  
Sea Level Pressure 29.89 in    
Wind  
Wind Speed 5 mph ()    
Max Wind Speed 9 mph    
Max Gust Speed -    
Visibility 3.1 miles    
Events Fog , Rain    
Averages and records for this station are not official NWS values.
T = Trace of Precipitation, MM = Missing Value Source: Averaged Metar Reports

Daily Weather History Graph

Daily Weather History Graph

Search for Another Location

Airport or City:

Trip Planner

Search our weather history database for the weather conditions in past years. The results will help you decide how hot, cold, wet, or windy it might be!

Date:

Astronomy

Dec. 18, 2012 Rise Set
Actual Time 8:46 AM CET 4:28 PM CET
Civil Twilight 8:05 AM CET 5:10 PM CET
Nautical Twilight 7:21 AM CET 5:54 PM CET
Astronomical Twilight 6:39 AM CET 6:35 PM CET
Moon 11:38 AM CET (12/18) 11:22 PM CET (12/18)
Length of Visible Light 9h 04m
Length of Day
7h 41m
Waxing Crescent, 32% of the Moon is Illuminated
Dec 18
Waxing Crescent
Dec 20
First Quarter
Dec 28
Full
Jan 5
Last Quarter
Jan 11
New

Hourly Weather History & Observations

Time (CET) Temp. Windchill Dew Point Humidity Pressure Visibility Wind Dir Wind Speed Gust Speed Precip Events Conditions
1:25 AM 37.4 °F 30.8 °F 35.6 °F 93% 29.68 in 6.2 mi SSW 9.2 mph - N/A   Mostly Cloudy
1:55 AM 37.4 °F 30.8 °F 37.4 °F 100% 29.68 in 6.2 mi SSW 9.2 mph - N/A   Scattered Clouds
2:25 AM 39.2 °F 33.6 °F 39.2 °F 100% 29.71 in 6.2 mi South 8.1 mph - N/A   Mostly Cloudy
2:55 AM 39.2 °F 33.6 °F 39.2 °F 100% 29.71 in 5.6 mi SSE 8.1 mph - N/A   Mostly Cloudy
3:25 AM 41.0 °F 35.8 °F 39.2 °F 93% 29.71 in 5.0 mi South 8.1 mph - N/A   Mostly Cloudy
3:55 AM 41.0 °F 36.4 °F 39.2 °F 93% 29.71 in 4.3 mi South 6.9 mph - N/A   Mostly Cloudy
4:00 AM 40 °F - 40 °F 98% 29.73 in 4 mi South 6.7 mph - -   Mist
4:25 AM 41.0 °F 35.8 °F 39.2 °F 93% 29.71 in 4.3 mi South 8.1 mph - N/A   Scattered Clouds
4:55 AM 41.0 °F 35.8 °F 39.2 °F 93% 29.74 in 5.6 mi South 8.1 mph - N/A   Scattered Clouds
5:25 AM 41.0 °F 36.4 °F 39.2 °F 93% 29.74 in 4.3 mi South 6.9 mph - N/A Rain Light Rain Showers
5:55 AM 41.0 °F 35.8 °F 39.2 °F 93% 29.74 in 4.3 mi South 8.1 mph - N/A Rain Light Rain Showers
6:25 AM 41.0 °F 35.8 °F 41.0 °F 100% 29.74 in 2.8 mi South 8.1 mph - N/A Rain Light Rain Showers
6:55 AM 41.0 °F 35.8 °F 41.0 °F 100% 29.77 in 2.8 mi SSW 8.1 mph - N/A Rain Light Rain Showers
7:00 AM 41 °F - 40 °F 97% 29.78 in 3 mi South 6.7 mph - - Rain Rain
7:25 AM 41.0 °F 36.4 °F 41.0 °F 100% 29.77 in 3.1 mi South 6.9 mph - N/A Rain Light Rain Showers
7:55 AM 41.0 °F 39.0 °F 41.0 °F 100% 29.80 in 3.1 mi South 3.5 mph - N/A   Mostly Cloudy
8:25 AM 41.0 °F 37.1 °F 41.0 °F 100% 29.80 in 3.1 mi SSE 5.8 mph - N/A Rain Light Rain Showers
8:55 AM 41.0 °F 38.0 °F 41.0 °F 100% 29.80 in 2.8 mi SSW 4.6 mph - N/A   Mostly Cloudy
9:25 AM 41.0 °F 35.8 °F 41.0 °F 100% 29.83 in - South 8.1 mph - N/A   Mostly Cloudy
9:55 AM 41.0 °F 38.0 °F 41.0 °F 100% 29.83 in - South 4.6 mph - N/A   Mostly Cloudy
10:00 AM 42 °F - 41 °F 94% 29.85 in 3 mi South 4.5 mph - -   Mist
10:25 AM 41.0 °F 37.1 °F 41.0 °F 100% 29.83 in - SSE 5.8 mph - N/A   Scattered Clouds
10:55 AM 42.8 °F 40.1 °F 41.0 °F 93% 29.86 in 2.8 mi South 4.6 mph - N/A   Mostly Cloudy
11:25 AM 42.8 °F 38.6 °F 41.0 °F 93% 29.86 in 2.2 mi SSW 6.9 mph - N/A   Mostly Cloudy
11:55 AM 42.8 °F 39.3 °F 41.0 °F 93% 29.86 in - SSW 5.8 mph - N/A   Mostly Cloudy
12:25 PM 42.8 °F 41.1 °F 42.8 °F 100% 29.89 in 2.5 mi South 3.5 mph - N/A   Mostly Cloudy
12:55 PM 44.6 °F 43.1 °F 42.8 °F 93% 29.89 in - South 3.5 mph - N/A   Mostly Cloudy
1:00 PM 44 °F - 43 °F 94% 29.90 in 3 mi South 2.2 mph - -   Mist
1:25 PM 44.6 °F 42.2 °F 42.8 °F 93% 29.89 in 3.1 mi NW 4.6 mph - N/A Rain Light Rain Showers
1:55 PM 44.6 °F - 42.8 °F 93% 29.89 in - Variable 1.2 mph - N/A Rain Light Rain Showers
2:25 PM 44.6 °F - 42.8 °F 93% 29.92 in 3.1 mi NE 1.2 mph - N/A Rain Light Rain Showers
2:55 PM 44.6 °F - 42.8 °F 93% 29.92 in 3.7 mi Calm Calm - N/A   Mostly Cloudy
3:25 PM 44.6 °F 43.1 °F 42.8 °F 93% 29.92 in 3.1 mi ENE 3.5 mph - N/A   Mostly Cloudy
3:55 PM 44.6 °F 42.2 °F 42.8 °F 93% 29.95 in 3.7 mi NNE 4.6 mph - N/A   Mostly Cloudy
4:00 PM 44 °F - 43 °F 93% 29.96 in 4 mi NNE 4.5 mph - -   Mist
4:25 PM 44.6 °F 43.1 °F 42.8 °F 93% 29.95 in 3.1 mi North 3.5 mph - N/A   Mostly Cloudy
4:55 PM 42.8 °F 40.1 °F 42.8 °F 100% 29.98 in 3.1 mi North 4.6 mph - N/A   Mostly Cloudy
5:25 PM 42.8 °F 39.3 °F 42.8 °F 100% 30.01 in 2.2 mi NW 5.8 mph - N/A   Mostly Cloudy
5:55 PM 42.8 °F 41.1 °F 41.0 °F 93% 30.01 in 1.2 mi NNE 3.5 mph - N/A   Mostly Cloudy
6:25 PM 42.8 °F 41.1 °F 41.0 °F 93% 30.01 in 2.5 mi NNE 3.5 mph - N/A   Partly Cloudy
6:55 PM 41.0 °F - 39.2 °F 93% 30.01 in 2.5 mi Variable 1.2 mph - N/A   Partly Cloudy
7:00 PM 41 °F - 40 °F 96% 30.04 in 2 mi NW 2.2 mph - - Rain Light Rain Showers
7:25 PM 42.8 °F 40.1 °F 41.0 °F 93% 30.04 in 1.6 mi NW 4.6 mph - N/A   Partly Cloudy
7:55 PM 41.0 °F 38.0 °F 41.0 °F 100% 30.04 in 2.5 mi ESE 4.6 mph - N/A   Partly Cloudy
8:25 PM 41.0 °F - 41.0 °F 100% 30.04 in 1.6 mi North 2.3 mph - N/A Fog Patches of Fog
8:55 PM 39.2 °F - 37.4 °F 93% 30.04 in 1.9 mi Variable 2.3 mph - N/A   Unknown
9:25 PM 41.0 °F - 41.0 °F 100% 30.06 in 1.2 mi SW 1.2 mph - N/A   Partly Cloudy
9:55 PM 41.0 °F - 41.0 °F 100% 30.06 in 1.7 mi Variable 2.3 mph - N/A Fog Patches of Fog
10:00 PM 40 °F - 40 °F 100% 30.08 in 0 mi NNW 2.2 mph - - Fog Fog
10:25 PM 39.2 °F 37.0 °F 39.2 °F 100% 30.06 in 1.1 mi North 3.5 mph - N/A Fog Shallow Fog
10:55 PM 41.0 °F - 41.0 °F 100% 30.06 in 2.5 mi Variable 2.3 mph - N/A   Partly Cloudy
11:25 PM 39.2 °F - 39.2 °F 100% 30.09 in 2.5 mi Variable 2.3 mph - N/A   Partly Cloudy
11:55 PM 41.0 °F - 41.0 °F 100% 30.09 in 2.2 mi SSW 1.2 mph - N/A   Partly Cloudy